Wind_Speed
59 64 69 74 79 83 88 91 95 98 101 104 107 111 115 119 125 128 132 135 136 134 134 136 136 133 132 132 134 137 140 141 140 137 135 134 132 129 126 123 119 115 112 110 108 106 106 107 106 105 105 104 103 102 100 100 99 97 95 95 97 96 94 94 94 93 92 91 90 90 90 91 90 89 87 85 83 82 82 82 83 85 86 87 87 87
51 55 60 67 72 76 81 85 89 93 96 98 102 106 108 112 117 122 126 130 132 131 131 132 132 130 128 128 130 132 135 137 139 139 138 136 134 132 129 127 124 121 117 114 111 108 107 107 108 107 106 105 105 104 103 102 101 98 95 93 93 93 92 93 93 92 91 91 90 89 87 88 89 88 87 87 87 87 87 88 89 90 90 89 88 87
46 48 53 58 63 69 75 79 83 87 91 94 97 100 102 105 109 115 119 123 126 127 128 129 131 129 127 127 128 129 130 131 133 136 137 137 136 135 132 130 127 125 122 119 116 113 110 108 108 109 109 108 108 107 105 104 102 101 98 96 95 93 92 92 92 91 90 90 90 89 87 87 89 90 90 91 92 92 92 92 92 92 91 90 89 88
41 44 47 50 54 61 67 72 76 81 85 88 92 95 97 99 104 109 112 115 119 121 123 126 128 128 127 126 126 127 127 127 128 130 132 134 135 135 135 133 130 128 125 123 120 117 115 112 110 110 111 111 110 109 109 107 105 103 102 101 99 97 95 94 93 92 91 90 90 91 92 92 94 95 94 94 94 93 93 93 92 91 91 90 89 88
35 38 41 44 48 52 57 63 69 75 79 82 85 88 92 95 100 103 105 107 111 114 116 119 123 124 123 124 124 125 126 126 126 127 128 129 130 131 133 133 132 129 127 125 123 121 118 115 113 112 113 113 112 112 112 112 110 109 106 105 103 101 99 98 97 95 93 92 92 93 95 96 97 97 95 93 92 91 91 91 89 88 88 87 86 85
28 32 36 39 42 45 49 55 61 67 72 76 79 82 86 91 95 97 99 102 106 108 109 113 117 117 117 119 121 123 124 124 124 124 125 125 125 126 127 129 130 130 128 126 125 123 120 118 115 114 114 115 114 114 114 114 113 112 110 107 105 102 101 100 99 98 96 94 93 93 93 94 95 94 91 89 88 88 87 86 84 83 83 83 82 82
23 26 30 32 35 39 42 47 53 58 63 68 72 77 81 85 89 91 94 98 102 103 104 107 110 109 110 114 117 120 122 123 123 123 123 123 123 123 123 124 125 126 126 125 124 122 121 119 117 114 114 115 115 114 114 115 114 113 111 109 106 103 101 100 98 98 96 93 91 90 89 89 89 88 86 84 83 83 82 81 80 80 80 80 80 80
19 20 23 26 28 32 36 40 45 50 54 59 64 70 75 78 82 85 89 94 96 98 100 102 103 101 102 106 110 114 117 119 120 121 120 121 121 120 120 120 121 121 121 121 121 120 119 118 116 114 113 113 113 113 113 114 113 112 111 109 107 104 102 100 97 95 93 92 90 88 87 85 84 82 81 80 80 79 77 77 77 77 78 79 80 81
18 17 17 19 22 26 29 34 38 42 47 51 57 62 67 72 75 78 83 87 90 94 95 94 95 94 93 97 103 108 111 113 115 116 117 118 119 119 118 119 119 118 118 118 117 117 116 115 114 113 112 111 111 110 111 111 110 109 109 108 107 104 101 98 96 94 92 91 90 88 86 84 81 79 78 78 77 76 75 75 76 76 77 78 80 81
21 17 15 15 17 19 22 26 30 35 40 44 49 54 59 64 67 70 75 78 83 87 86 86 90 89 86 90 97 101 103 105 108 111 114 115 117 117 118 118 118 117 116 115 115 114 113 112 111 110 110 109 109 108 108 107 107 106 106 105 104 102 100 97 94 92 90 88 87 86 85 83 82 80 79 77 76 75 75 76 77 78 79 79 80 81
25 19 15 12 12 14 16 19 23 27 32 37 41 45 50 54 58 61 64 69 75 76 76 80 86 86 81 83 89 92 93 98 103 108 111 112 114 115 116 116 116 116 115 114 113 111 110 109 108 108 108 108 107 107 106 105 104 104 104 103 101 99 98 96 94 92 90 88 86 85 84 83 82 81 80 78 77 75 75 76 77 77 78 78 78 79
31 24 18 13 10 10 11 13 16 20 25 29 33 37 41 45 49 52 55 60 63 63 67 76 82 82 75 73 81 86 87 93 99 104 106 108 110 112 114 115 115 115 114 113 112 110 108 107 106 106 105 105 105 105 104 103 102 102 101 100 99 98 97 96 95 95 94 92 90 88 85 83 82 81 80 79 78 76 74 74 74 74 75 76 76 76
35 28 21 15 10 7 7 9 11 14 18 21 26 30 34 38 42 45 48 51 53 55 63 71 76 76 69 66 75 82 85 89 94 98 102 105 107 109 111 113 113 114 113 111 110 109 108 106 105 104 103 102 102 102 101 101 100 99 98 96 95 96 96 96 96 95 94 93 91 90 88 86 85 83 81 79 78 77 75 73 73 73 74 75 76 76
40 33 26 19 13 8 5 5 6 9 13 15 19 23 27 32 35 39 42 44 46 51 58 65 68 67 62 61 70 78 81 85 88 92 98 102 105 107 109 110 111 111 110 109 109 108 107 106 104 103 102 100 99 98 98 98 97 96 95 94 93 94 94 94 94 94 92 91 90 89 89 88 87 85 83 81 80 79 77 76 75 75 75 76 77 77
45 39 33 26 18 11 6 3 2 4 7 10 13 16 20 24 28 32 35 37 41 45 50 55 57 56 55 58 65 73 78 81 84 87 92 97 101 104 105 106 107 107 106 106 106 105 104 104 103 102 100 99 98 96 96 95 94 94 93 92 92 93 94 92 91 90 89 87 87 87 88 88 88 87 86 85 83 82 80 79 77 77 77 77 78 78
50 45 39 33 26 19 13 7 3 1 2 4 7 10 12 16 20 24 28 31 35 39 43 47 48 50 53 57 63 69 74 77 79 82 86 91 96 98 100 101 102 102 102 101 101 101 101 101 100 100 99 98 97 95 94 93 93 92 91 91 90 92 92 91 89 87 85 84 83 84 85 86 88 88 86 85 83 81 80 79 78 76 75 75 75 75
53 49 44 40 35 29 23 16 10 4 2 3 5 7 9 11 14 17 21 25 28 32 37 40 42 45 49 52 57 63 68 72 74 77 81 86 89 92 94 96 98 99 98 98 97 97 97 97 97 97 96 96 95 94 93 92 91 91 91 90 90 90 91 89 88 87 86 84 83 83 84 86 86 86 85 84 83 81 80 78 77 76 75 74 74 75
55 52 49 45 41 38 34 28 20 13 7 2 3 6 7 9 12 14 16 20 23 26 31 34 37 40 43 47 52 59 64 68 70 74 78 80 82 85 88 92 95 96 96 95 94 93 92 93 93 93 93 93 92 92 91 91 90 90 91 90 89 90 90 89 88 89 89 89 88 86 86 86 86 85 84 84 84 83 82 80 80 80 79 78 77 77
59 55 52 49 45 42 41 38 32 26 19 11 5 1 3 7 10 12 15 17 19 22 25 29 32 35 39 43 49 56 62 65 68 71 73 74 77 80 84 88 92 93 92 90 89 89 89 90 90 90 90 90 90 90 90 90 90 90 90 90 89 89 90 90 89 90 91 92 92 92 90 89 88 87 87 86 86 85 84 84 84 84 84 84 84 84
65 59 55 52 49 45 43 41 39 35 30 23 16 9 4 0 4 9 12 15 17 19 22 25 27 31 34 38 44 52 59 62 64 66 68 71 74 77 81 85 88 89 87 87 87 86 87 87 87 87 87 87 89 89 90 90 89 89 89 89 89 89 90 91 91 91 91 91 92 93 94 93 92 91 90 90 89 87 85 84 83 84 84 85 86 87
68 64 59 55 52 48 45 43 40 37 34 30 25 20 15 10 4 1 6 9 13 16 19 22 25 28 31 34 40 47 52 56 59 61 64 68 71 74 77 80 83 85 85 85 85 85 85 84 84 84 84 85 87 88 88 88 88 88 88 88 88 88 90 93 93 91 90 91 91 91 93 95 96 95 94 93 92 90 88 86 85 84 85 86 87 88
67 67 64 60 55 51 48 45 42 38 36 34 32 29 25 20 15 10 3 2 6 10 14 17 21 24 27 30 35 41 45 48 52 55 58 62 65 69 72 75 78 81 82 83 83 83 82 82 81 81 81 82 84 85 86 86 86 86 86 87 87 88 89 92 93 90 90 90 90 91 92 94 96 97 97 96 95 93 92 91 90 88 88 89 89 90
65 65 65 64 61 56 51 48 45 43 40 39 37 35 31 28 24 19 14 8 3 2 7 11 15 19 23 26 31 35 39 42 44 47 50 54 57 61 64 68 72 75 77 79 80 79 79 78 78 78 78 80 81 82 82 82 83 84 84 85 86 87 88 91 92 91 90 90 91 91 92 93 94 96 97 97 97 96 95 95 95 94 93 93 94 95
64 64 64 65 64 61 57 53 50 47 45 43 41 38 36 33 30 26 22 18 13 8 3 3 8 13 18 22 26 30 34 36 38 39 41 45 49 53 57 61 65 68 72 74 75 76 75 75 74 74 75 76 78 79 80 80 80 81 83 84 85 86 87 89 91 91 91 91 92 91 91 92 93 94 95 96 97 98 99 99 100 100 100 99 100 100
63 63 63 63 63 62 61 59 56 52 48 45 43 41 39 37 34 32 28 24 20 16 11 6 1 5 10 16 21 25 28 30 32 34 35 38 41 45 50 54 58 62 66 69 71 71 72 72 71 72 73 74 76 77 78 78 79 79 81 82 83 85 86 87 89 90 91 91 91 91 91 91 92 92 92 92 93 94 96 97 98 98 99 99 99 100
61 61 61 60 61 61 61 61 60 57 53 50 46 44 42 39 37 35 33 30 27 24 19 14 9 3 2 8 13 18 22 26 28 30 32 34 36 39 43 48 52 56 59 63 65 67 68 68 68 69 70 71 73 75 76 77 77 77 79 80 81 83 84 85 87 88 90 90 90 91 91 92 91 91 90 89 90 91 91 92 93 94 95 96 97 98
60 60 59 59 59 59 59 59 59 59 58 55 51 48 44 42 39 37 35 33 31 28 26 22 17 12 6 0 6 11 15 20 24 28 30 32 34 37 40 44 47 51 55 58 61 63 64 65 65 66 67 68 70 72 74 75 75 76 77 78 79 80 81 83 84 86 87 88 89 90 91 92 92 92 92 91 91 91 91 91 92 93 94 96 97 98
60 59 58 58 58 58 58 57 57 57 57 57 56 53 49 46 42 39 37 34 32 30 29 27 23 20 15 9 4 2 7 12 18 22 27 30 32 34 36 39 43 46 50 54 57 60 62 64 65 65 66 67 69 70 71 72 73 74 74 75 76 78 79 80 81 82 84 85 87 89 90 91 92 93 94 94 94 94 94 94 95 95 96 97 99 100
59 59 58 57 56 56 56 56 56 55 54 54 54 54 52 50 47 43 39 36 34 32 30 28 26 24 21 18 14 9 4 2 8 14 20 25 28 31 33 35 38 41 45 48 52 56 60 63 63 63 64 65 65 66 67 69 70 71 72 73 74 75 76 77 78 80 81 82 84 86 88 89 91 92 93 94 95 97 98 99 99 99 100 101 102 103
55 56 57 57 56 55 54 54 54 54 53 52 51 51 51 51 50 47 44 40 37 34 32 30 28 26 24 22 20 18 14 10 4 2 9 16 21 26 29 32 34 37 40 44 47 51 55 57 58 59 60 60 60 62 64 65 67 68 69 71 72 73 74 75 75 77 79 80 82 83 85 88 89 90 91 92 93 95 96 97 98 100 101 103 105 106
50 52 54 55 55 55 53 52 52 51 51 51 50 49 48 48 48 48 47 45 42 38 35 32 30 29 27 25 23 22 20 17 14 10 4 3 9 15 21 25 29 32 35 38 41 44 47 49 51 52 54 55 56 58 60 62 63 65 67 69 70 71 72 73 74 76 77 79 80 82 84 86 87 88 89 90 91 92 92 93 95 96 98 100 102 103
46 48 49 51 52 53 53 52 51 50 49 49 48 48 47 47 46 46 45 45 44 42 40 37 34 32 29 27 25 24 22 20 18 16 13 8 3 2 8 14 19 23 27 30 32 35 38 41 43 46 48 50 52 54 56 58 60 63 65 67 68 70 71 72 73 75 77 78 80 81 83 84 85 86 88 89 89 90 91 93 94 96 97 98 99 99
43 44 45 47 48 50 51 51 51 50 49 48 47 46 45 45 45 44 43 43 42 42 41 40 39 36 33 30 28 25 23 22 20 18 16 13 10 7 3 2 7 11 16 20 23 27 30 34 37 40 42 45 47 50 52 55 57 60 62 64 66 68 69 71 72 74 76 77 79 80 82 83 84 85 86 87 88 89 91 93 94 96 97 98 98 98
42 41 41 43 45 47 48 48 49 49 50 49 47 46 44 43 43 43 42 42 41 40 40 39 39 38 37 35 32 30 27 24 22 19 17 15 12 10 7 5 2 3 7 11 15 19 22 26 29 33 36 39 42 45 47 50 53 55 58 60 62 64 66 68 70 72 74 75 77 78 80 81 82 83 84 85 86 87 89 91 93 94 94 94 95 95
39 40 40 40 40 42 44 46 46 47 47 47 47 47 46 44 43 42 41 40 40 39 39 38 37 36 36 35 34 33 31 28 26 23 20 17 14 11 8 6 3 2 4 7 10 14 17 21 25 28 31 34 37 40 43 46 49 51 52 55 57 59 61 63 65 67 69 71 73 75 76 76 77 78 79 80 81 83 85 87 88 88 89 89 90 90
35 37 39 39 38 38 39 42 43 43 43 43 44 45 45 45 44 43 42 40 39 39 38 38 37 36 35 34 33 32 31 30 28 26 24 21 18 15 12 8 5 2 2 5 8 12 15 18 22 25 28 31 34 37 40 43 44 46 48 50 52 54 56 58 60 62 64 66 67 68 69 69 70 71 73 74 77 79 80 81 82 83 83 84 85 85
32 33 35 37 38 37 37 37 39 40 40 40 40 40 41 42 42 43 42 41 41 40 39 38 37 36 35 34 33 32 30 29 27 26 24 22 21 18 16 13 10 7 4 1 4 8 11 14 18 21 24 27 30 33 36 38 40 42 44 46 48 50 52 53 55 57 58 60 61 61 62 63 65 66 68 71 72 74 75 75 76 77 77 78 78 78
31 31 31 32 34 36 36 35 35 36 37 37 37 37 37 38 38 39 39 39 39 39 39 38 37 36 35 34 34 33 31 30 28 26 24 22 20 18 16 14 12 10 8 5 3 3 5 8 11 14 17 21 23 26 29 32 34 36 39 41 43 44 46 48 50 51 52 53 54 55 56 58 59 61 63 64 66 67 67 67 68 69 70 70 70 70
30 29 29 28 30 33 35 35 35 35 35 35 35 34 34 34 35 35 35 35 36 36 36 36 36 36 35 34 34 34 33 31 30 28 26 24 22 20 17 15 12 10 8 7 5 4 4 5 7 9 11 14 16 19 22 24 26 29 31 33 35 36 39 41 42 43 44 45 46 48 49 51 52 53 55 56 58 58 59 60 61 62 63 64 64 65
29 28 28 28 27 29 32 34 36 35 34 33 33 33 32 32 32 32 32 32 32 32 32 32 32 32 32 32 31 32 31 31 30 30 29 27 26 24 22 20 18 15 12 10 9 7 7 7 8 10 11 13 15 17 19 21 23 25 27 29 30 32 35 36 36 37 38 40 41 42 44 45 47 48 50 52 53 54 56 57 58 60 61 61 62 64
29 27 27 27 28 28 30 32 35 36 34 33 33 32 31 30 30 30 30 30 30 30 30 30 29 28 28 28 27 27 27 27 27 27 27 27 27 26 25 25 24 22 20 18 17 15 14 14 13 14 15 16 18 20 22 23 25 27 29 30 32 34 35 35 35 37 39 40 41 42 43 45 46 48 50 52 54 55 57 58 60 62 63 63 64 67
30 28 26 27 28 29 30 31 33 35 33 32 32 32 31 30 29 29 29 29 29 28 28 28 28 27 26 25 25 24 24 24 24 24 24 24 24 24 24 24 25 24 23 23 22 22 22 21 21 21 22 22 23 25 26 27 29 31 32 34 37 37 36 37 39 40 41 43 44 45 46 48 50 52 54 55 56 57 59 61 63 65 66 66 68 70
33 29 27 27 28 29 30 31 32 33 33 33 32 32 31 29 29 29 28 28 29 29 28 27 26 26 26 25 25 24 23 23 22 22 22 21 22 22 21 22 23 23 23 22 22 23 23 24 24 25 26 27 27 29 30 31 33 35 36 39 41 41 40 42 43 44 45 47 48 49 50 52 53 55 57 57 58 60 62 64 66 68 68 69 70 72
35 31 28 28 29 30 31 31 31 32 34 34 33 31 30 30 29 29 29 28 29 30 30 29 27 26 25 25 25 24 24 24 23 23 22 22 22 22 21 21 22 22 23 23 23 23 23 24 25 26 27 28 29 30 32 33 35 36 39 41 42 42 44 46 47 47 49 50 52 53 54 55 56 58 59 60 61 62 64 66 67 68 69 70 72 74
37 34 30 30 30 32 33 32 31 31 33 34 33 31 30 30 30 30 30 29 29 30 31 31 31 29 26 25 25 25 24 24 24 24 23 23 23 24 24 24 24 24 24 25 25 26 27 28 29 30 31 31 32 32 34 34 35 37 40 41 41 43 46 48 49 51 52 54 56 57 58 59 60 61 63 64 64 65 67 68 70 71 72 74 75 77
37 36 33 32 33 34 35 34 32 31 31 32 33 33 31 30 31 31 30 30 30 30 30 30 32 32 30 27 26 27 26 26 27 26 26 25 25 26 26 27 27 27 28 29 29 29 31 32 34 35 37 37 37 38 38 38 38 39 41 42 43 45 48 49 51 53 55 58 60 61 61 62 64 66 67 68 69 70 71 72 74 75 76 78 79 80
38 37 35 34 35 36 36 35 34 32 29 29 31 33 31 30 31 31 31 31 31 30 30 30 30 33 33 31 29 29 29 29 29 30 30 30 30 29 29 29 30 30 31 32 32 33 35 36 37 39 40 40 41 41 42 42 43 44 45 45 46 47 49 51 53 56 57 60 62 63 64 66 67 69 70 72 73 74 74 76 77 78 79 81 82 82
41 40 38 37 38 38 38 38 37 33 30 28 29 30 30 30 30 31 32 33 33 33 31 30 31 33 35 35 33 32 32 32 32 32 33 34 34 33 33 34 34 34 35 36 36 37 38 39 40 42 43 44 44 44 45 46 47 48 49 50 50 50 51 52 54 57 59 61 63 64 66 67 69 71 72 74 75 76 77 78 79 80 81 82 83 84
45 44 44 42 39 38 41 43 40 33 30 29 28 28 29 28 28 30 32 35 36 35 33 32 33 35 37 37 35 34 35 35 33 33 34 36 36 36 37 37 38 39 40 40 41 41 42 43 44 45 46 47 47 48 48 49 51 52 53 54 54 54 55 55 55 56 58 61 63 65 67 68 70 71 73 75 76 77 78 79 80 81 81 83 84 85
49 48 49 45 41 41 44 46 41 34 31 31 29 28 28 28 28 29 32 33 35 36 36 37 38 39 38 37 36 36 38 38 37 36 36 38 38 38 39 40 41 42 44 44 44 45 46 47 47 48 50 51 51 52 53 54 54 56 56 57 58 58 59 59 58 57 58 59 61 64 66 67 69 71 73 74 76 77 78 79 80 81 82 83 85 86
51 49 49 46 43 45 47 46 42 37 34 32 31 31 30 30 29 30 31 33 35 37 38 40 41 41 40 40 40 40 40 41 42 40 40 41 42 42 42 42 43 45 46 46 46 47 48 49 50 51 53 54 54 55 56 57 58 60 60 61 61 61 62 62 62 61 61 61 61 62 64 65 68 70 72 74 76 77 78 79 80 81 82 84 86 87
Wind_Direction
247 247 247 246 246 245 244 244 243 243 242 242 241 241 240 240 241 241 241 241 241 240 240 240 241 240 239 239 240 240 240 240 240 240 241 241 242 242 242 242 242 241 241 240 239 239 239 240 241 242 244 246 248 249 250 250 250 251 252 253 255 256 257 257 258 258 260 261 262 263 263 264 264 264 265 265 266 267 267 268 269 270 271 272 273 274
251 248 246 246 246 245 245 244 243 243 243 242 241 240 240 239 240 240 240 241 241 241 240 240 241 240 239 239 239 240 240 240 240 240 240 241 241 242 242 242 242 242 242 242 241 240 240 240 240 241 242 244 246 248 250 250 251 251 251 252 253 255 256 257 258 259 260 261 261 262 262 262 263 263 264 265 266 267 268 269 270 271 272 273 273 273
256 252 248 246 246 245 244 243 243 243 242 241 241 241 240 239 239 239 239 240 240 241 240 240 240 240 239 239 239 239 240 240 240 241 241 240 241 241 241 241 241 242 243 243 243 242 241 240 240 241 242 243 244 246 248 249 250 250 250 251 252 254 255 257 258 259 260 260 261 260 259 260 262 263 264 265 267 268 269 270 271 272 272 272 272 272
261 257 253 250 246 244 243 243 242 242 242 241 241 241 240 239 239 239 239 239 239 240 240 240 239 239 239 238 238 239 239 240 240 240 241 241 241 241 241 241 241 241 242 243 244 244 243 242 241 241 241 241 242 244 246 247 248 249 250 250 252 253 254 256 257 258 259 259 259 259 259 260 261 263 264 266 267 268 269 270 271 271 271 271 271 271
265 261 257 253 249 245 243 241 241 241 241 242 241 240 240 239 239 239 239 239 239 239 239 239 239 239 238 238 237 238 239 239 240 240 241 241 241 241 241 241 241 241 241 242 243 244 243 243 242 241 241 241 242 243 244 246 247 248 250 251 251 253 254 255 257 258 259 259 259 260 260 261 262 263 265 266 267 268 269 270 271 271 271 271 271 270
275 266 260 255 251 247 243 240 239 239 239 240 240 240 239 239 239 239 238 239 239 239 239 239 239 238 238 238 238 237 238 238 238 239 240 241 241 241 241 241 241 241 241 241 242 243 243 243 242 241 241 242 242 242 243 245 247 248 250 251 252 253 253 254 256 257 258 258 259 260 261 262 264 265 266 267 268 269 269 270 270 270 269 269 269 269
285 273 265 260 255 250 245 242 240 239 239 239 239 239 239 239 239 239 238 238 238 238 238 238 239 237 237 237 237 237 237 237 238 238 239 240 241 241 241 241 242 242 241 241 241 242 242 242 242 242 241 242 242 242 243 244 246 247 249 251 252 253 253 254 255 256 257 257 258 259 260 262 264 266 267 267 267 268 268 268 268 268 268 268 268 268
300 283 272 265 258 252 248 244 241 239 239 238 238 238 239 239 239 238 238 238 238 239 238 238 238 237 236 236 236 236 237 237 237 238 238 239 240 241 241 241 242 242 242 241 241 241 241 242 242 242 242 242 242 243 243 244 245 247 248 249 250 251 252 253 254 254 255 255 256 257 258 260 262 264 265 266 266 267 266 266 266 267 267 268 268 268
321 302 285 272 263 255 250 246 243 241 240 238 237 237 238 238 239 238 238 238 238 238 239 239 239 238 235 235 236 236 236 236 236 238 238 239 239 240 240 241 241 241 241 241 241 241 241 241 242 242 241 242 242 242 242 243 244 246 247 248 249 250 251 252 252 253 253 254 255 256 257 259 260 262 263 264 264 264 264 264 265 265 266 267 268 268
339 323 307 289 273 262 254 249 246 244 242 240 238 237 237 238 238 238 238 238 238 238 239 239 240 240 236 234 236 236 236 236 236 236 237 238 239 240 240 240 241 241 241 241 241 241 240 241 241 241 241 241 241 241 242 242 243 244 246 247 248 249 250 250 251 251 252 253 254 255 257 258 258 259 260 261 261 262 263 263 264 265 265 266 266 267
353 339 324 310 291 275 262 253 248 245 243 241 239 239 238 238 238 238 238 238 239 239 239 240 240 240 237 234 235 236 236 235 235 235 235 236 237 239 240 240 241 241 240 240 241 240 240 240 240 240 240 240 241 241 241 242 243 244 245 246 247 248 249 249 250 250 250 251 252 253 254 256 256 257 258 259 260 261 262 263 264 264 265 265 265 266
4 351 338 325 308 290 273 259 251 246 243 241 239 238 238 237 238 238 237 238 239 239 238 239 240 240 238 234 235 236 235 235 234 234 235 235 236 237 238 239 240 240 240 240 240 241 240 240 240 240 240 240 240 241 241 242 242 243 244 245 247 248 248 248 249 249 250 250 251 251 252 253 254 256 256 257 258 259 260 261 262 262 263 263 263 264
14 4 352 338 323 307 288 271 256 248 243 240 238 237 236 235 236 236 235 235 235 234 234 236 237 238 236 232 233 235 234 234 233 233 234 234 234 235 236 237 238 239 240 240 240 240 240 240 240 240 240 240 240 241 241 242 242 243 243 244 245 247 247 248 249 250 251 252 252 252 252 251 253 254 255 256 257 258 258 258 259 259 260 261 262 263
24 18 9 355 340 324 307 289 270 254 244 238 236 236 235 234 234 234 234 234 232 231 231 233 234 235 233 230 231 233 233 233 233 232 233 233 233 234 235 236 237 238 239 239 239 240 240 240 240 240 240 240 240 240 241 241 242 242 243 243 244 245 246 247 249 250 251 252 252 252 251 251 252 253 254 255 256 256 257 257 257 257 258 260 262 263
31 28 23 14 3 351 341 331 285 255 245 238 233 233 234 234 234 234 234 233 232 232 233 234 234 233 231 227 227 229 230 231 231 231 231 232 232 233 234 235 236 238 238 239 239 239 240 240 240 240 240 240 240 240 240 240 241 241 242 242 243 244 245 246 248 249 250 250 251 250 250 251 251 252 253 255 255 256 256 256 257 258 259 261 263 265
34 34 33 29 23 15 7 5 17 110 179 207 218 220 224 229 231 232 233 232 232 231 232 234 233 231 228 224 223 224 226 227 228 228 229 231 231 232 233 234 236 237 238 239 239 239 240 240 240 240 240 241 241 240 240 240 240 240 241 241 242 243 244 245 245 246 247 247 247 248 248 249 250 251 252 253 254 255 255 256 258 259 261 262 264 266
34 35 37 37 36 33 28 22 18 29 97 143 171 186 198 210 219 225 227 229 229 229 230 230 229 227 226 223 221 223 224 224 225 226 227 228 229 231 231 233 234 236 236 237 238 238 239 240 240 240 241 241 241 240 240 240 240 240 240 240 241 242 243 243 243 244 243 243 244 245 247 248 248 249 250 251 252 254 255 256 257 258 259 261 262 264
35 36 37 38 40 41 39 35 31 29 30 46 159 168 178 190 200 209 216 220 223 225 226 227 226 224 222 220 218 219 221 222 222 223 224 226 227 229 230 231 232 233 234 235 236 237 238 238 239 239 240 240 240 240 240 239 239 239 240 239 240 240 242 242 242 242 241 241 242 244 246 247 247 248 250 251 253 254 256 256 257 257 258 259 260 261
35 36 38 38 39 42 43 41 39 37 32 27 29 80 183 193 197 200 204 207 210 214 218 221 221 220 219 217 215 216 218 219 219 220 221 222 224 226 228 229 230 231 232 233 234 235 236 236 237 237 238 238 238 238 238 238 238 238 239 239 238 239 240 241 240 240 241 241 242 244 245 247 248 249 251 253 255 256 257 258 258 259 259 260 261 261
35 36 38 38 39 41 44 45 44 41 37 33 31 32 33 300 213 207 204 201 201 203 207 210 212 212 214 213 213 215 218 218 218 218 218 219 220 222 224 226 228 229 230 231 232 233 234 234 235 235 236 236 236 236 236 236 236 236 237 238 238 238 239 240 240 240 241 242 243 244 244 246 249 251 252 254 256 257 259 259 259 260 262 263 263 263
36 37 38 39 39 39 42 45 47 48 46 44 42 42 42 39 31 255 216 206 202 201 202 203 203 205 207 208 209 213 216 218 218 217 217 218 218 219 221 223 225 227 227 229 230 231 232 233 233 234 234 235 235 236 235 236 236 236 236 237 238 238 239 241 242 242 242 243 243 244 245 246 248 250 252 254 255 257 258 258 258 260 262 263 263 264
36 37 38 39 40 40 40 43 45 48 51 52 50 49 47 46 43 36 25 208 205 206 206 207 205 203 204 204 206 210 213 216 218 218 218 219 219 220 220 221 223 224 225 226 227 228 229 231 232 232 233 233 234 235 236 236 236 236 236 237 238 238 239 241 243 243 243 243 244 245 245 246 248 249 251 252 253 255 256 257 257 259 260 262 262 263
34 36 38 39 40 40 40 42 43 44 46 49 50 50 51 50 48 44 40 41 51 190 207 211 210 208 205 203 204 207 209 212 216 218 219 220 221 221 221 222 222 223 224 225 226 227 228 229 230 231 232 233 234 235 236 236 236 236 237 237 238 239 240 242 243 244 243 244 245 245 246 247 248 250 251 252 253 254 255 256 257 258 259 260 261 262
34 35 36 38 39 40 41 41 42 43 45 46 47 48 50 50 51 50 47 45 44 45 60 195 209 210 209 206 205 206 207 209 211 214 217 221 222 222 222 223 223 223 223 224 225 226 227 228 229 230 231 232 233 234 235 235 236 236 237 237 238 239 240 241 244 245 245 245 246 247 247 248 249 250 252 253 254 255 256 257 258 259 260 262 263 264
35 36 37 37 38 39 41 42 42 43 44 45 46 47 47 48 49 50 49 49 49 47 47 49 79 209 209 208 207 206 206 207 208 210 213 217 220 222 223 223 223 224 223 224 224 225 226 227 228 229 230 231 232 233 234 235 235 235 236 237 237 239 240 241 243 245 246 247 247 248 248 249 250 252 253 255 256 257 258 259 261 262 264 265 266 266
35 36 38 39 39 39 40 41 42 43 43 44 46 47 47 47 47 48 49 49 50 50 48 46 43 41 208 211 211 210 208 206 206 207 209 211 214 218 220 221 222 223 223 224 225 225 226 227 228 229 230 231 232 233 234 235 235 236 236 237 238 239 240 241 243 245 247 248 249 249 250 250 251 252 253 254 256 258 259 260 261 263 264 264 265 265
35 36 37 39 40 41 41 41 41 42 43 44 45 45 46 47 47 47 48 48 49 50 51 49 47 45 42 259 221 219 217 214 211 209 208 209 210 212 215 218 219 220 221 223 224 225 226 228 229 229 230 231 232 233 234 235 236 236 237 238 239 240 241 242 243 245 247 248 250 251 251 252 252 252 252 252 254 256 257 259 260 261 262 262 263 264
36 37 37 38 39 41 42 43 42 42 42 43 44 45 46 46 47 47 47 47 48 49 51 51 51 51 52 49 41 240 229 225 222 218 213 210 209 210 212 215 217 219 220 221 222 224 225 227 228 228 229 231 231 232 234 235 236 237 238 239 240 241 242 243 245 246 247 249 251 252 253 254 254 254 254 254 254 255 257 258 259 260 261 262 263 264
34 37 38 38 39 40 42 43 44 44 44 43 43 44 46 47 47 47 47 47 47 47 49 51 52 55 58 59 58 56 52 240 233 229 223 215 210 209 209 211 215 217 219 220 221 223 224 226 227 228 229 231 232 234 235 236 238 239 240 241 242 243 244 245 246 247 249 250 251 253 254 255 255 256 257 257 257 258 259 260 260 261 261 262 263 264
31 34 37 38 39 40 41 42 43 44 45 45 45 44 45 46 47 47 48 48 47 47 47 49 50 53 56 59 62 64 63 62 61 235 232 225 218 213 209 209 211 214 217 220 221 223 225 227 227 229 231 232 234 235 237 238 239 240 241 242 243 245 246 247 248 249 250 251 252 253 254 255 256 257 258 259 260 260 261 262 263 263 263 264 264 265
27 30 34 37 38 40 40 41 42 43 44 45 45 46 46 46 46 47 48 48 48 48 48 47 48 50 52 55 58 62 64 66 66 65 62 234 231 224 218 213 212 213 216 219 222 224 226 228 229 230 232 234 235 237 239 240 241 242 243 244 245 246 247 248 249 250 251 252 253 254 255 256 258 259 260 261 262 262 263 264 265 265 266 266 266 267
22 26 29 33 36 38 39 41 41 42 43 43 44 45 46 47 47 48 48 48 48 49 48 48 48 48 49 51 54 57 61 64 67 69 70 70 67 240 234 227 222 219 219 220 221 224 226 228 229 231 233 234 236 238 240 241 242 244 244 245 246 247 248 249 250 251 252 253 254 255 256 257 258 260 261 262 263 264 265 266 267 268 268 269 269 270
16 20 24 28 31 34 36 38 40 41 42 43 43 43 44 45 47 48 49 50 50 50 50 49 50 49 49 49 50 52 55 58 62 66 69 73 76 80 91 221 233 231 229 226 226 226 227 229 230 232 234 236 238 240 242 243 245 246 247 248 249 250 251 251 252 253 254 255 256 257 258 259 260 261 262 263 265 266 266 267 268 268 269 270 271 272
11 13 17 22 25 28 31 33 35 37 39 41 42 43 43 44 44 45 47 49 50 52 52 52 51 51 51 50 50 50 50 52 54 57 61 65 69 75 82 94 135 213 232 235 236 237 237 237 238 239 240 242 243 245 247 248 249 250 251 252 252 253 254 255 255 256 257 258 259 259 260 261 262 263 264 265 265 266 266 267 267 268 269 270 271 272
9 10 11 14 18 22 25 27 28 31 34 36 39 41 42 43 44 44 44 45 47 49 52 53 54 54 53 53 52 52 51 50 50 51 52 55 59 62 67 77 95 151 211 229 236 239 241 242 244 245 246 247 248 249 250 251 252 253 254 255 256 256 257 257 258 259 259 260 260 261 262 263 264 265 266 266 266 266 267 267 268 269 270 271 271 272
6 8 8 8 10 13 17 21 22 24 26 29 32 35 38 40 42 43 44 44 45 45 47 49 51 53 55 55 55 55 54 53 53 52 51 51 52 53 55 57 59 67 223 235 238 240 242 244 245 247 248 249 250 251 252 254 255 256 257 257 258 258 258 259 260 260 261 261 262 263 264 265 266 266 266 266 266 267 267 268 269 270 270 271 271 272
360 4 5 5 6 7 9 12 16 19 21 22 24 28 31 34 37 40 42 43 44 45 46 46 46 47 49 51 53 54 55 55 55 55 54 53 52 51 51 51 51 48 39 317 261 254 251 251 251 251 252 252 253 254 255 256 257 258 258 258 259 259 260 261 261 262 263 264 265 266 266 266 266 266 266 266 266 267 268 269 270 270 271 272 272 273
352 356 1 3 3 4 4 5 7 10 13 16 18 20 23 25 29 32 35 38 41 44 45 46 46 46 46 46 47 48 49 51 52 52 53 53 53 53 51 50 50 48 44 35 11 313 277 266 262 260 259 259 259 259 260 260 261 261 261 262 262 263 264 264 264 265 266 267 267 267 267 267 267 267 267 268 268 269 270 270 271 271 272 273 274 275
345 348 352 357 359 1 2 1 360 0 3 6 10 13 15 17 19 23 26 30 33 37 40 43 45 47 47 47 47 46 45 45 44 44 45 46 46 47 47 46 45 43 37 29 17 351 315 293 279 271 269 267 265 265 265 265 266 266 266 266 267 267 266 266 267 268 268 268 267 267 267 267 267 268 268 269 269 270 271 272 273 273 275 276 278 279
340 341 343 347 351 355 358 357 356 354 354 357 0 4 7 10 11 13 16 19 22 26 29 34 38 41 44 46 47 48 47 45 43 41 39 38 37 37 36 35 33 30 26 18 8 350 331 314 299 289 283 277 274 272 271 270 269 269 269 269 268 267 267 269 269 268 268 267 267 267 267 268 269 269 270 271 272 274 275 276 277 278 279 281 282 283
333 335 335 338 341 345 350 352 352 351 350 352 353 354 357 1 2 4 6 8 11 15 17 20 24 28 32 35 38 41 43 44 43 41 39 37 35 33 31 30 27 24 20 16 10 2 353 342 331 321 311 303 297 293 289 287 284 282 282 280 277 275 276 276 275 274 273 274 274 274 274 274 275 275 276 277 278 279 280 281 282 282 283 284 285 285
325 327 328 330 332 335 340 345 347 347 346 347 348 347 348 351 354 355 356 357 359 3 6 8 10 12 15 19 22 24 28 32 34 34 34 33 31 30 28 26 24 21 18 15 11 7 2 357 351 345 337 330 324 317 313 308 303 300 298 294 291 291 291 289 286 285 284 283 282 282 281 281 281 281 281 281 282 283 283 284 283 283 284 284 283 283
316 318 319 321 325 328 331 336 340 342 341 340 340 340 340 342 344 346 348 348 348 350 353 355 359 1 1 3 6 7 8 11 15 18 19 19 19 19 18 17 15 13 11 9 6 3 0 357 354 350 347 344 339 334 329 322 315 311 305 298 299 301 299 295 293 293 291 289 287 286 285 284 283 283 283 283 283 283 283 282 282 282 282 282 282 282
310 311 311 313 318 322 323 328 334 337 337 335 334 334 333 333 334 336 338 339 339 339 340 341 344 348 351 351 352 353 353 354 356 359 1 1 1 1 1 1 1 359 357 355 354 352 350 349 348 346 346 345 344 341 338 332 326 320 310 305 307 306 300 296 296 294 292 290 289 287 287 286 286 286 285 285 285 284 284 284 284 284 285 286 286 287
303 305 304 304 312 317 316 318 327 333 333 331 328 327 326 324 324 326 328 329 329 329 329 329 330 333 338 341 341 341 341 341 342 344 346 346 345 345 345 345 346 346 343 342 341 339 338 338 338 338 338 339 339 339 338 336 333 327 318 315 315 309 302 299 297 294 292 290 289 289 289 289 288 288 287 287 287 287 287 288 289 289 290 290 290 290
297 299 298 297 305 312 310 310 319 327 329 326 322 321 321 318 315 317 319 320 321 320 320 320 319 320 323 328 331 331 331 331 332 334 334 334 334 334 333 333 334 334 332 331 331 330 329 330 330 331 332 332 331 332 332 332 331 328 325 324 320 312 306 303 299 294 292 291 290 290 290 290 289 288 288 288 289 289 290 290 291 291 291 291 291 292
291 293 291 292 301 307 304 304 313 321 323 321 318 318 318 315 311 309 311 312 313 313 312 312 310 310 313 316 319 321 322 323 325 326 327 326 326 327 326 325 325 324 323 322 323 323 322 322 323 325 326 326 325 326 326 325 324 324 325 326 322 317 312 307 302 298 296 294 292 291 290 289 289 288 288 289 289 289 290 290 290 290 291 291 291 291
288 288 286 290 299 302 297 299 309 318 319 316 315 314 314 312 309 306 305 306 306 306 306 304 302 303 305 307 310 312 313 316 318 320 320 320 320 320 320 320 320 318 317 317 317 318 317 317 317 319 319 319 320 321 321 320 319 319 320 321 321 320 318 313 308 304 301 298 295 293 291 289 289 288 288 288 288 288 289 289 289 290 290 290 290 290
284 286 287 292 297 294 291 297 308 314 313 310 310 310 310 308 305 302 301 301 300 300 299 297 296 298 300 301 303 303 304 306 310 312 312 312 313 313 313 313 313 313 313 313 314 313 313 314 314 315 314 314 315 316 316 315 316 316 316 316 317 318 319 317 313 309 304 300 297 295 293 291 290 289 289 288 288 288 288 288 289 289 289 289 289 289
282 286 288 292 292 288 289 296 303 308 307 303 302 304 304 302 300 299 299 296 293 292 292 292 293 294 295 295 295 296 297 299 302 305 305 304 305 306 306 306 306 307 307 308 309 309 309 310 312 313 312 312 312 313 312 312 313 314 314 313 314 314 315 316 315 312 308 303 298 295 293 292 291 291 290 289 289 289 289 289 289 289 289 289 288 288
282 284 286 288 288 288 291 294 297 302 304 298 294 296 297 295 294 294 291 288 288 290 292 293 292 290 290 290 291 292 294 296 298 300 299 299 299 300 301 301 301 302 302 304 304 304 305 307 309 310 309 309 310 310 309 308 309 310 311 312 312 312 312 313 313 313 310 306 301 297 293 292 291 290 290 290 290 289 290 290 290 289 289 289 289 289
Height
10394 10396 10397 10399 10400 10403 10407 10411 10417 10421 10425 10433 10441 10447 10455 10463 10466 10471 10477 10477 10483 10497 10509 10512 10519 10536 10554 10566 10572 10575 10582 10589 10595 10605 10612 10618 10627 10636 10645 10655 10662 10668 10673 10679 10684 10691 10696 10700 10705 10708 10711 10714 10717 10721 10725 10727 10730 10734 10734 10731 10729 10732 10737 10739 10741 10743 10744 10745 10746 10746 10745 10745 10747 10750 10752 10754 10755 10756 10757 10757 10757 10757 10757 10757 10757 10758
10384 10386 10388 10388 10389 10393 10397 10400 10405 10409 10414 10421 10425 10430 10439 10447 10451 10456 10462 10465 10470 10484 10497 10502 10508 10522 10539 10551 10556 10560 10568 10576 10583 10592 10599 10607 10615 10623 10634 10643 10651 10657 10662 10668 10674 10681 10687 10692 10696 10701 10704 10708 10710 10712 10716 10718 10721 10725 10724 10722 10722 10724 10727 10730 10732 10735 10736 10736 10738 10739 10738 10736 10738 10742 10744 10746 10748 10748 10749 10748 10749 10749 10750 10750 10751 10751
10374 10377 10378 10379 10381 10384 10386 10389 10394 10397 10401 10407 10412 10418 10426 10434 10439 10441 10447 10453 10459 10469 10481 10488 10494 10507 10522 10534 10541 10546 10554 10563 10572 10578 10586 10595 10603 10610 10620 10629 10638 10646 10652 10659 10664 10671 10677 10682 10688 10692 10696 10698 10700 10704 10707 10709 10710 10713 10713 10713 10714 10717 10719 10722 10724 10726 10727 10728 10730 10731 10731 10729 10729 10733 10736 10739 10740 10741 10741 10740 10741 10743 10743 10743 10744 10744
10366 10367 10368 10370 10373 10374 10376 10380 10385 10387 10390 10395 10401 10407 10414 10422 10425 10426 10433 10440 10446 10455 10463 10471 10479 10491 10504 10517 10527 10534 10541 10551 10559 10565 10572 10581 10591 10598 10605 10615 10626 10635 10643 10649 10654 10659 10666 10672 10678 10683 10685 10686 10691 10696 10697 10698 10700 10701 10703 10705 10707 10710 10712 10714 10716 10718 10718 10720 10720 10720 10721 10723 10722 10725 10729 10731 10733 10733 10733 10733 10734 10735 10735 10735 10736 10735
10361 10361 10361 10361 10363 10365 10368 10372 10375 10378 10381 10385 10391 10396 10403 10409 10410 10413 10423 10431 10436 10442 10450 10458 10465 10477 10491 10504 10514 10521 10528 10538 10546 10553 10559 10568 10578 10586 10594 10603 10613 10623 10632 10638 10643 10648 10654 10661 10668 10672 10673 10675 10682 10687 10686 10688 10691 10692 10694 10698 10700 10703 10705 10707 10709 10711 10711 10711 10711 10710 10711 10714 10715 10718 10722 10724 10725 10725 10724 10725 10727 10727 10726 10726 10727 10727
10356 10355 10354 10354 10355 10357 10359 10362 10365 10368 10372 10376 10381 10387 10392 10395 10397 10404 10414 10420 10423 10428 10439 10446 10450 10465 10483 10493 10503 10509 10516 10525 10533 10541 10548 10556 10566 10574 10582 10591 10599 10609 10619 10626 10632 10638 10643 10649 10655 10661 10663 10666 10671 10676 10677 10679 10683 10686 10689 10691 10693 10696 10698 10700 10702 10703 10703 10702 10702 10702 10702 10704 10707 10711 10715 10717 10717 10716 10716 10717 10718 10718 10718 10718 10718 10718
10351 10350 10349 10349 10350 10351 10353 10355 10357 10361 10365 10368 10373 10377 10380 10384 10389 10397 10404 10407 10409 10418 10429 10432 10436 10455 10472 10480 10489 10497 10504 10513 10520 10529 10538 10545 10553 10563 10571 10579 10586 10595 10605 10613 10620 10626 10631 10636 10643 10650 10654 10656 10660 10666 10670 10672 10675 10680 10683 10684 10687 10689 10690 10692 10694 10695 10695 10695 10694 10694 10696 10697 10700 10703 10706 10708 10708 10708 10709 10709 10710 10710 10710 10710 10710 10710
10347 10346 10345 10345 10346 10346 10347 10349 10351 10354 10358 10361 10365 10367 10371 10376 10380 10388 10392 10395 10402 10409 10415 10420 10427 10444 10460 10469 10477 10484 10491 10501 10510 10519 10529 10535 10542 10551 10559 10566 10574 10582 10591 10600 10607 10614 10620 10625 10632 10639 10644 10647 10651 10657 10661 10664 10667 10670 10673 10676 10679 10681 10683 10685 10687 10687 10687 10686 10687 10688 10690 10692 10695 10697 10698 10700 10700 10701 10702 10702 10701 10702 10702 10701 10701 10700
10345 10343 10342 10342 10342 10342 10343 10344 10346 10349 10351 10354 10357 10360 10364 10368 10372 10379 10382 10387 10395 10398 10404 10416 10421 10431 10450 10461 10466 10472 10481 10491 10504 10514 10522 10529 10534 10540 10547 10554 10561 10569 10578 10586 10594 10602 10609 10615 10622 10629 10634 10637 10642 10647 10650 10654 10658 10660 10663 10666 10670 10673 10675 10677 10678 10680 10679 10678 10680 10682 10685 10688 10690 10691 10692 10692 10693 10694 10694 10694 10694 10694 10693 10693 10692 10691
10344 10342 10341 10340 10340 10339 10340 10341 10342 10344 10346 10349 10351 10354 10358 10361 10366 10371 10375 10382 10386 10389 10401 10413 10414 10420 10440 10452 10455 10461 10473 10486 10499 10506 10511 10518 10523 10529 10536 10541 10547 10556 10565 10573 10581 10590 10598 10605 10612 10618 10623 10627 10631 10636 10640 10645 10649 10652 10654 10657 10661 10664 10666 10668 10670 10671 10672 10672 10674 10676 10679 10682 10684 10685 10685 10685 10686 10686 10687 10686 10686 10686 10685 10685 10684 10683
10344 10342 10340 10339 10338 10337 10338 10338 10339 10340 10341 10344 10347 10350 10353 10356 10361 10365 10371 10376 10378 10388 10403 10407 10404 10410 10427 10443 10449 10456 10470 10482 10489 10492 10498 10505 10512 10519 10525 10530 10536 10544 10552 10560 10568 10578 10588 10595 10601 10607 10612 10616 10620 10625 10630 10635 10639 10643 10647 10650 10653 10655 10657 10660 10661 10662 10664 10666 10668 10670 10672 10674 10676 10677 10678 10678 10678 10679 10679 10678 10678 10678 10678 10677 10676 10676
10346 10343 10341 10339 10337 10336 10336 10336 10336 10337 10338 10341 10343 10346 10349 10352 10357 10361 10366 10370 10375 10389 10399 10395 10395 10401 10417 10438 10447 10450 10461 10468 10472 10480 10488 10495 10502 10509 10513 10518 10524 10531 10540 10550 10558 10568 10577 10584 10590 10596 10602 10607 10611 10616 10622 10627 10631 10635 10639 10643 10645 10646 10648 10651 10652 10654 10656 10658 10661 10663 10665 10667 10667 10669 10670 10671 10671 10672 10673 10672 10671 10671 10669 10668 10667 10667
10348 10345 10343 10340 10338 10336 10335 10335 10335 10335 10336 10338 10340 10342 10345 10348 10352 10356 10360 10364 10371 10382 10384 10382 10386 10393 10409 10433 10439 10439 10448 10454 10461 10471 10477 10484 10491 10496 10501 10507 10513 10519 10529 10540 10549 10557 10566 10573 10580 10586 10592 10598 10603 10608 10614 10619 10623 10626 10631 10635 10637 10637 10638 10642 10644 10647 10649 10652 10654 10656 10658 10660 10660 10660 10662 10663 10664 10664 10665 10665 10664 10663 10661 10660 10659 10659
10351 10348 10345 10343 10340 10338 10336 10335 10335 10335 10335 10336 10338 10340 10343 10345 10349 10352 10355 10361 10366 10370 10371 10373 10379 10387 10406 10425 10429 10430 10437 10444 10452 10460 10466 10472 10479 10484 10490 10496 10502 10510 10520 10530 10539 10548 10556 10563 10570 10576 10583 10589 10595 10601 10606 10610 10615 10618 10622 10626 10628 10628 10630 10633 10637 10639 10642 10644 10647 10649 10650 10652 10653 10654 10654 10655 10656 10656 10657 10657 10656 10655 10654 10653 10652 10651
10355 10352 10349 10346 10344 10341 10339 10336 10335 10335 10335 10336 10337 10339 10341 10344 10347 10350 10353 10358 10361 10365 10367 10371 10378 10389 10403 10414 10416 10419 10425 10432 10440 10449 10456 10461 10468 10474 10480 10488 10496 10504 10514 10523 10531 10540 10548 10555 10561 10568 10574 10581 10587 10593 10597 10601 10605 10609 10613 10617 10619 10620 10622 10626 10629 10632 10634 10636 10638 10641 10643 10644 10645 10646 10647 10647 10648 10648 10648 10648 10647 10647 10647 10647 10645 10644
10361 10357 10353 10350 10348 10345 10342 10340 10338 10336 10336 10336 10337 10338 10340 10343 10346 10349 10352 10355 10358 10362 10365 10369 10377 10386 10393 10398 10403 10407 10413 10420 10429 10439 10446 10451 10458 10466 10475 10484 10492 10498 10507 10516 10525 10534 10541 10547 10554 10560 10567 10573 10580 10585 10589 10593 10597 10601 10604 10608 10611 10611 10614 10620 10622 10624 10627 10628 10630 10632 10634 10636 10636 10637 10639 10639 10639 10639 10639 10639 10639 10639 10639 10639 10638 10637
10367 10363 10358 10355 10352 10349 10347 10345 10342 10340 10339 10338 10338 10338 10339 10341 10344 10347 10349 10352 10356 10359 10362 10366 10372 10378 10384 10391 10397 10401 10406 10412 10420 10429 10436 10441 10450 10458 10468 10477 10483 10490 10499 10507 10516 10525 10532 10540 10547 10553 10560 10566 10572 10576 10580 10585 10589 10592 10595 10599 10602 10603 10606 10611 10614 10616 10618 10620 10622 10624 10626 10627 10628 10629 10630 10630 10630 10630 10631 10632 10632 10631 10632 10631 10630 10630
10374 10370 10365 10360 10357 10354 10351 10349 10347 10345 10344 10342 10341 10340 10340 10341 10342 10344 10346 10349 10352 10356 10359 10363 10367 10373 10379 10385 10390 10394 10398 10404 10412 10419 10425 10433 10443 10452 10461 10468 10473 10479 10488 10497 10507 10517 10524 10532 10538 10544 10552 10558 10563 10567 10571 10576 10580 10583 10586 10590 10593 10595 10597 10601 10605 10607 10609 10612 10614 10615 10617 10619 10620 10621 10621 10621 10622 10622 10623 10623 10623 10623 10623 10623 10623 10622
10382 10377 10371 10367 10363 10359 10356 10353 10352 10350 10349 10348 10346 10345 10344 10344 10343 10344 10345 10346 10349 10352 10355 10359 10364 10369 10374 10379 10384 10387 10390 10395 10402 10408 10417 10427 10437 10444 10452 10458 10463 10470 10480 10491 10501 10509 10515 10521 10527 10534 10542 10548 10552 10557 10561 10565 10569 10573 10577 10581 10585 10587 10588 10592 10595 10596 10599 10602 10605 10607 10609 10611 10612 10613 10613 10614 10614 10615 10615 10615 10615 10615 10615 10616 10615 10614
10391 10385 10379 10375 10371 10367 10362 10359 10357 10355 10354 10352 10351 10350 10350 10349 10349 10348 10348 10348 10349 10351 10353 10356 10360 10364 10369 10374 10379 10382 10385 10390 10397 10404 10412 10419 10426 10433 10441 10448 10455 10464 10475 10484 10492 10498 10504 10510 10517 10525 10532 10538 10542 10546 10550 10554 10559 10564 10568 10572 10576 10579 10580 10581 10584 10587 10590 10594 10597 10599 10601 10603 10604 10605 10606 10607 10607 10608 10608 10608 10608 10608 10608 10608 10608 10607
10399 10393 10388 10383 10379 10375 10370 10366 10364 10361 10359 10358 10357 10355 10354 10354 10353 10353 10353 10353 10353 10354 10355 10357 10359 10362 10366 10370 10375 10379 10383 10389 10395 10402 10408 10413 10419 10425 10432 10440 10448 10456 10465 10473 10480 10488 10494 10501 10509 10516 10523 10529 10532 10536 10541 10546 10551 10556 10560 10564 10568 10571 10573 10573 10575 10579 10583 10586 10589 10591 10593 10595 10596 10597 10598 10599 10600 10601 10601 10601 10601 10601 10601 10601 10600 10599
10406 10401 10396 10391 10386 10382 10378 10374 10371 10368 10365 10363 10361 10360 10359 10358 10358 10358 10358 10358 10358 10359 10360 10361 10363 10364 10367 10370 10374 10378 10383 10389 10395 10401 10406 10411 10417 10422 10428 10435 10441 10449 10457 10464 10471 10479 10486 10494 10501 10508 10515 10520 10523 10528 10534 10540 10545 10549 10553 10557 10561 10565 10567 10566 10568 10572 10576 10578 10581 10583 10585 10586 10587 10588 10590 10591 10592 10592 10592 10593 10593 10592 10592 10592 10592 10591
10414 10409 10404 10398 10393 10390 10386 10381 10377 10373 10370 10367 10365 10365 10364 10363 10363 10363 10363 10363 10363 10364 10365 10366 10368 10369 10371 10373 10376 10379 10384 10389 10395 10401 10407 10412 10417 10422 10427 10433 10438 10444 10451 10458 10465 10472 10480 10487 10494 10501 10508 10513 10517 10523 10528 10534 10539 10543 10547 10551 10554 10558 10560 10560 10561 10565 10568 10570 10572 10575 10577 10578 10579 10580 10582 10583 10584 10584 10584 10584 10584 10584 10584 10584 10583 10583
10423 10417 10411 10406 10401 10397 10393 10388 10383 10380 10377 10374 10372 10370 10369 10368 10367 10367 10367 10367 10368 10369 10370 10371 10372 10373 10375 10377 10379 10382 10385 10389 10394 10400 10407 10412 10417 10422 10427 10432 10437 10442 10448 10454 10461 10468 10475 10482 10489 10496 10502 10507 10512 10516 10521 10526 10531 10536 10540 10543 10547 10549 10552 10554 10555 10557 10560 10563 10565 10567 10569 10570 10571 10572 10573 10575 10576 10576 10576 10576 10576 10576 10577 10577 10576 10575
10432 10425 10420 10414 10410 10405 10400 10395 10391 10388 10384 10381 10379 10377 10375 10374 10372 10372 10371 10372 10372 10373 10374 10375 10376 10378 10379 10381 10383 10385 10388 10391 10396 10400 10405 10410 10416 10421 10425 10430 10435 10440 10446 10452 10458 10465 10471 10478 10484 10491 10496 10501 10505 10509 10514 10519 10523 10528 10531 10535 10539 10541 10544 10547 10549 10550 10553 10555 10558 10559 10561 10563 10564 10565 10566 10567 10568 10569 10569 10569 10570 10570 10570 10570 10569 10568
10440 10434 10429 10424 10418 10413 10408 10404 10400 10396 10392 10389 10386 10384 10382 10380 10378 10377 10376 10376 10376 10376 10377 10378 10380 10381 10383 10384 10386 10388 10390 10393 10396 10400 10404 10408 10412 10417 10422 10427 10432 10438 10444 10450 10456 10463 10469 10474 10480 10485 10491 10496 10500 10504 10508 10512 10517 10521 10525 10528 10532 10535 10538 10541 10543 10545 10547 10549 10551 10553 10554 10555 10556 10557 10558 10559 10560 10560 10561 10562 10562 10563 10562 10561 10560 10559
10447 10441 10436 10431 10426 10421 10416 10412 10408 10404 10400 10396 10393 10390 10388 10386 10384 10383 10382 10381 10380 10380 10381 10382 10383 10384 10386 10387 10389 10391 10393 10395 10397 10400 10403 10406 10409 10413 10418 10423 10429 10434 10440 10446 10453 10459 10465 10471 10476 10481 10487 10491 10495 10499 10502 10507 10512 10515 10519 10523 10526 10529 10532 10534 10536 10539 10541 10543 10545 10546 10547 10548 10549 10550 10550 10551 10552 10552 10553 10553 10554 10554 10553 10552 10551 10550
10454 10448 10443 10438 10433 10428 10424 10420 10416 10412 10408 10405 10402 10399 10396 10393 10391 10390 10388 10387 10386 10385 10385 10385 10386 10387 10388 10389 10391 10393 10395 10397 10400 10401 10403 10406 10409 10412 10417 10422 10427 10432 10437 10443 10449 10455 10461 10465 10470 10476 10480 10484 10488 10493 10498 10502 10507 10511 10514 10518 10521 10523 10526 10528 10531 10534 10536 10537 10538 10539 10540 10541 10542 10542 10543 10543 10544 10544 10545 10545 10544 10544 10544 10543 10542 10541
10461 10455 10450 10444 10440 10435 10431 10427 10423 10420 10417 10414 10411 10407 10404 10401 10399 10397 10395 10393 10392 10391 10390 10390 10390 10391 10391 10392 10393 10395 10397 10399 10401 10404 10405 10407 10409 10412 10416 10420 10425 10430 10435 10440 10445 10450 10455 10458 10464 10471 10475 10480 10485 10491 10495 10499 10503 10507 10510 10513 10515 10518 10520 10523 10526 10528 10529 10530 10531 10532 10533 10533 10534 10534 10535 10536 10537 10536 10536 10536 10536 10535 10535 10533 10532 10531
10468 10462 10456 10451 10446 10442 10438 10434 10431 10428 10425 10422 10419 10416 10413 10410 10407 10404 10402 10400 10398 10397 10396 10395 10395 10395 10395 10396 10396 10397 10399 10401 10403 10406 10408 10410 10412 10414 10416 10420 10424 10428 10433 10438 10442 10447 10451 10456 10463 10469 10474 10479 10485 10489 10492 10495 10499 10502 10505 10508 10510 10512 10514 10518 10521 10522 10522 10523 10524 10524 10525 10525 10525 10526 10527 10528 10528 10528 10527 10527 10527 10526 10525 10524 10522 10520
10473 10468 10463 10459 10454 10449 10445 10441 10437 10434 10431 10429 10426 10423 10420 10418 10415 10412 10409 10407 10405 10403 10402 10400 10400 10400 10400 10400 10400 10401 10402 10403 10405 10407 10410 10413 10415 10418 10420 10422 10425 10428 10432 10437 10441 10447 10452 10457 10463 10469 10473 10477 10481 10485 10489 10492 10495 10498 10500 10503 10505 10506 10509 10512 10514 10514 10514 10515 10515 10516 10516 10516 10517 10518 10518 10518 10518 10518 10518 10518 10517 10516 10514 10513 10511 10510
10478 10474 10470 10465 10461 10457 10452 10448 10444 10441 10438 10435 10432 10430 10427 10424 10422 10419 10417 10415 10412 10410 10408 10407 10405 10404 10404 10404 10405 10405 10406 10407 10408 10410 10412 10415 10418 10421 10424 10426 10429 10432 10435 10439 10443 10448 10452 10457 10462 10466 10470 10474 10478 10482 10485 10488 10490 10493 10495 10497 10499 10501 10503 10505 10506 10506 10506 10507 10507 10508 10508 10508 10509 10510 10509 10509 10509 10510 10509 10508 10507 10505 10503 10501 10500 10500
10482 10479 10475 10471 10467 10463 10459 10455 10452 10448 10444 10441 10438 10435 10433 10430 10428 10426 10424 10422 10420 10418 10416 10414 10412 10410 10409 10409 10409 10409 10410 10411 10412 10414 10415 10417 10420 10423 10426 10429 10432 10435 10438 10442 10445 10449 10453 10456 10460 10465 10469 10472 10476 10478 10481 10484 10487 10488 10490 10492 10494 10495 10497 10499 10499 10499 10500 10500 10501 10501 10501 10502 10502 10502 10502 10502 10503 10502 10501 10499 10497 10494 10492 10491 10491 10490
10485 10482 10479 10475 10472 10468 10465 10461 10458 10454 10451 10447 10444 10441 10439 10436 10434 10432 10429 10428 10426 10424 10422 10420 10419 10418 10416 10415 10414 10414 10414 10415 10416 10418 10419 10421 10423 10425 10427 10430 10433 10436 10440 10443 10447 10450 10454 10457 10461 10464 10468 10471 10474 10476 10479 10481 10482 10484 10486 10488 10489 10490 10491 10492 10493 10493 10493 10493 10494 10493 10493 10494 10495 10495 10495 10495 10494 10492 10490 10488 10485 10484 10483 10482 10481 10479
10487 10484 10481 10479 10475 10472 10469 10466 10463 10460 10457 10454 10451 10448 10445 10442 10439 10437 10435 10433 10431 10429 10428 10426 10425 10424 10423 10422 10421 10421 10420 10420 10421 10422 10423 10424 10426 10428 10430 10433 10435 10438 10441 10444 10447 10450 10453 10457 10460 10463 10466 10468 10471 10473 10475 10476 10477 10479 10481 10482 10483 10484 10484 10485 10485 10485 10485 10485 10485 10485 10485 10486 10487 10487 10487 10485 10483 10480 10478 10476 10475 10474 10473 10472 10470 10468
10489 10486 10483 10481 10478 10475 10473 10470 10467 10464 10462 10459 10456 10454 10451 10448 10445 10442 10440 10438 10436 10434 10432 10431 10430 10430 10429 10428 10428 10427 10427 10427 10427 10427 10428 10429 10430 10431 10433 10435 10438 10440 10442 10445 10447 10450 10453 10455 10458 10461 10463 10465 10467 10468 10469 10471 10472 10474 10475 10476 10476 10477 10477 10477 10478 10477 10477 10477 10477 10478 10478 10479 10479 10478 10476 10473 10471 10469 10467 10467 10466 10464 10463 10461 10459 10457
10490 10488 10486 10483 10480 10478 10475 10473 10471 10468 10465 10463 10460 10458 10456 10453 10451 10448 10445 10443 10441 10439 10437 10436 10435 10434 10433 10433 10433 10432 10433 10433 10433 10433 10434 10434 10435 10436 10437 10438 10440 10442 10443 10446 10448 10450 10452 10454 10456 10458 10460 10462 10463 10464 10465 10466 10468 10468 10469 10469 10469 10470 10470 10470 10470 10470 10470 10471 10471 10471 10471 10470 10469 10467 10465 10463 10461 10460 10459 10459 10457 10455 10453 10451 10449 10447
10491 10489 10487 10485 10482 10480 10478 10475 10473 10471 10469 10466 10463 10461 10459 10457 10455 10453 10451 10448 10446 10444 10442 10441 10439 10438 10437 10437 10436 10436 10436 10437 10437 10438 10438 10439 10440 10441 10442 10443 10444 10445 10446 10447 10449 10450 10452 10453 10454 10456 10457 10458 10459 10460 10461 10462 10462 10463 10463 10463 10464 10464 10464 10464 10463 10464 10465 10464 10464 10463 10462 10461 10459 10458 10456 10454 10453 10452 10452 10451 10448 10446 10444 10442 10441 10439
10491 10489 10487 10486 10483 10481 10479 10477 10475 10473 10471 10469 10466 10464 10462 10460 10458 10456 10454 10452 10451 10449 10447 10445 10444 10442 10442 10441 10440 10440 10439 10439 10440 10440 10441 10442 10443 10444 10445 10446 10447 10448 10449 10450 10451 10452 10452 10453 10454 10455 10456 10456 10457 10457 10457 10458 10458 10458 10458 10458 10459 10458 10458 10458 10458 10459 10459 10458 10457 10456 10454 10453 10452 10450 10448 10447 10446 10445 10444 10442 10440 10437 10435 10434 10433 10430
10489 10488 10487 10486 10484 10482 10480 10478 10476 10474 10472 10471 10469 10466 10464 10462 10460 10458 10457 10455 10454 10452 10450 10449 10447 10446 10445 10444 10443 10443 10442 10442 10442 10442 10442 10443 10443 10444 10445 10446 10447 10449 10450 10451 10452 10453 10453 10454 10455 10455 10456 10456 10456 10456 10456 10456 10456 10456 10455 10455 10455 10453 10453 10454 10455 10454 10453 10452 10451 10450 10448 10446 10445 10443 10442 10440 10439 10438 10436 10434 10432 10429 10428 10427 10425 10422
10488 10487 10485 10484 10483 10482 10481 10479 10477 10475 10473 10471 10470 10468 10466 10464 10462 10460 10459 10457 10456 10455 10453 10451 10450 10448 10447 10446 10446 10445 10445 10444 10444 10444 10444 10444 10444 10444 10445 10446 10446 10447 10448 10449 10450 10451 10452 10453 10454 10454 10455 10455 10455 10455 10455 10455 10454 10453 10453 10452 10450 10449 10450 10451 10450 10449 10448 10446 10445 10444 10442 10440 10439 10437 10435 10433 10432 10431 10429 10426 10424 10421 10420 10420 10417 10413
10486 10485 10483 10482 10482 10481 10480 10479 10477 10475 10473 10471 10470 10468 10466 10465 10463 10461 10460 10458 10457 10456 10455 10453 10452 10450 10449 10448 10447 10446 10446 10445 10445 10445 10445 10445 10445 10445 10445 10445 10446 10446 10446 10447 10447 10448 10448 10449 10449 10450 10450 10451 10451 10451 10451 10451 10450 10449 10448 10447 10445 10445 10446 10446 10444 10443 10442 10441 10439 10438 10436 10434 10432 10430 10429 10427 10426 10424 10422 10419 10416 10414 10412 10412 10409 10405
10484 10483 10481 10480 10479 10478 10478 10478 10477 10475 10473 10471 10469 10468 10466 10465 10464 10462 10460 10459 10457 10456 10456 10455 10453 10452 10450 10449 10448 10447 10446 10445 10445 10445 10445 10445 10445 10445 10445 10445 10445 10445 10445 10445 10445 10445 10446 10446 10446 10446 10446 10446 10446 10446 10446 10445 10444 10444 10443 10441 10439 10440 10440 10439 10438 10437 10436 10434 10433 10431 10429 10427 10426 10424 10422 10421 10419 10417 10415 10412 10408 10406 10404 10403 10400 10397
10481 10480 10479 10477 10477 10476 10475 10475 10476 10475 10473 10470 10468 10467 10466 10464 10463 10462 10460 10459 10457 10456 10455 10454 10453 10453 10451 10450 10449 10448 10447 10446 10445 10444 10444 10444 10443 10443 10443 10443 10443 10443 10443 10443 10443 10443 10443 10443 10443 10443 10443 10443 10443 10442 10442 10441 10440 10439 10438 10435 10435 10435 10434 10432 10431 10431 10429 10427 10425 10423 10422 10420 10418 10416 10414 10412 10411 10409 10406 10403 10399 10397 10395 10393 10390 10387
10478 10477 10476 10474 10474 10473 10471 10471 10473 10474 10472 10469 10466 10465 10464 10462 10460 10460 10459 10458 10456 10455 10453 10452 10451 10451 10451 10450 10449 10448 10447 10445 10445 10444 10443 10443 10442 10442 10441 10441 10441 10441 10441 10440 10440 10440 10439 10439 10439 10439 10439 10438 10438 10438 10438 10437 10436 10435 10433 10431 10430 10430 10428 10426 10425 10423 10421 10419 10417 10415 10414 10412 10410 10407 10405 10402 10401 10399 10396 10393 10389 10386 10384 10382 10379 10375
10475 10474 10473 10471 10471 10471 10468 10467 10469 10471 10470 10468 10465 10463 10462 10460 10458 10457 10456 10455 10455 10453 10451 10450 10448 10448 10448 10448 10447 10446 10445 10444 10443 10442 10442 10441 10440 10440 10439 10438 10438 10438 10437 10437 10437 10436 10436 10435 10434 10434 10434 10433 10433 10432 10432 10431 10430 10429 10427 10425 10425 10423 10421 10419 10418 10415 10413 10410 10408 10407 10405 10404 10401 10398 10395 10393 10391 10389 10386 10383 10379 10376 10374 10371 10367 10364
10471 10471 10470 10468 10468 10468 10464 10463 10465 10467 10466 10465 10463 10461 10460 10458 10455 10453 10452 10452 10451 10450 10449 10447 10446 10444 10444 10444 10444 10443 10442 10441 10440 10439 10438 10438 10437 10437 10436 10435 10435 10434 10433 10433 10433 10432 10432 10431 10430 10429 10429 10428 10428 10427 10426 10425 10424 10422 10420 10420 10418 10416 10415 10413 10410 10408 10405 10402 10400 10399 10397 10394 10392 10389 10386 10384 10381 10378 10376 10373 10369 10366 10363 10360 10356 10353
10465 10466 10465 10466 10466 10463 10459 10458 10462 10464 10462 10460 10459 10458 10457 10456 10453 10450 10449 10448 10447 10447 10446 10444 10442 10441 10440 10440 10440 10439 10438 10438 10437 10436 10435 10434 10433 10432 10432 10431 10431 10430 10429 10429 10429 10428 10427 10426 10426 10425 10424 10423 10422 10422 10421 10419 10417 10416 10415 10413 10412 10410 10408 10406 10403 10400 10398 10395 10392 10390 10387 10385 10382 10380 10377 10374 10371 10369 10366 10363 10359 10357 10354 10350 10346 10342
10459 10460 10459 10462 10464 10459 10453 10452 10457 10460 10457 10455 10455 10455 10453 10452 10451 10448 10446 10444 10443 10442 10442 10440 10438 10437 10436 10435 10435 10435 10433 10433 10434 10433 10431 10430 10429 10429 10428 10427 10426 10425 10424 10423 10423 10422 10422 10421 10420 10420 10418 10417 10416 10416 10414 10412 10411 10409 10408 10406 10405 10403 10401 10398 10395 10393 10390 10386 10383 10381 10378 10375 10373 10370 10367 10364 10361 10359 10357 10354 10350 10347 10344 10340 10335 10331
10452 10454 10453 10457 10458 10453 10448 10448 10452 10455 10453 10450 10449 10450 10449 10447 10447 10445 10443 10441 10439 10438 10437 10436 10434 10433 10432 10431 10430 10430 10428 10427 10428 10429 10427 10425 10425 10425 10424 10423 10422 10420 10419 10418 10418 10417 10416 10415 10414 10413 10412 10410 10409 10409 10407 10405 10403 10402 10400 10399 10397 10396 10393 10391 10388 10385 10381 10378 10374 10371 10368 10365 10363 10360 10357 10354 10351 10348 10346 10344 10340 10336 10334 10329 10324 10320
10443 10447 10447 10451 10452 10448 10444 10443 10446 10450 10449 10444 10442 10443 10443 10442 10441 10440 10437 10435 10435 10434 10434 10433 10431 10429 10427 10426 10425 10425 10424 10422 10422 10422 10422 10419 10418 10419 10419 10418 10417 10415 10413 10413 10412 10411 10410 10409 10408 10407 10405 10403 10403 10402 10400 10397 10395 10393 10392 10390 10389 10388 10385 10382 10379 10376 10372 10368 10365 10361 10358 10356 10353 10350 10347 10344 10340 10337 10335 10332 10329 10325 10323 10318 10312 10309